Location: St. Croix
(17.7278°N, 64.7644°W)
Time: 14:26:13
(UTC-04:00)

ISS - Visible Passes

Search period start: 18 February 2018 00:00
Search period end: 28 February 2018 00:00
Orbit: 403 x 407 km, 51.6° (Epoch: 19 February)

Date Brightness Start Highest point End Pass type
(mag) Time Alt. Az. Time Alt. Az. Time Alt. Az.
20 Feb -0.5 06:20:49 10° SSE 06:22:27 13° SE 06:24:05 10° E visible
22 Feb -2.7 06:11:09 10° SSW 06:14:18 47° SE 06:17:26 10° NE visible
23 Feb -1.0 05:19:51 10° S 05:22:09 18° SE 05:24:29 10° E visible
24 Feb -3.3 06:03:05 10° WSW 06:06:11 40° NW 06:09:16 10° NNE visible
25 Feb -3.6 05:14:06 68° ESE 05:14:06 68° ESE 05:17:12 10° NE visible
26 Feb -1.8 05:57:50 13° NW 05:58:10 13° NW 05:59:43 10° NNW visible
27 Feb -1.0 05:08:32 11° NNE 05:08:32 11° NNE 05:08:41 10° NNE visible
